EW8288 Weather Reports


time (UTC)temp
C
wind
direction
speed
KPH
gust
KPH
rain 1hr
cm
rain 24hr
cm
rain mn
cm
humidity
%
barometer
mb
20190418130228 21 22 1.6 9.7 0.00 0.00 0.00 33 1027.1
20190418125227 21 52 1.6 11.3 0.00 0.00 0.00 35 1027.4
20190418124228 20 188 3.2 8.0 0.00 0.00 0.00 36 1027.4
20190418123227 20 5 1.6 8.0 0.00 0.00 0.00 35 1027.4
20190418122227 21 234 6.4 14.5 0.00 0.00 0.00 35 1027.4
20190418121228 21 238 6.4 12.9 0.00 0.00 0.00 33 1027.4
20190418120228 21 186 4.8 9.7 0.00 0.00 0.00 33 1027.4
20190418115227 21 239 1.6 14.5 0.00 0.00 0.00 34 1027.8
20190418114227 21 40 3.2 8.0 0.00 0.00 0.00 36 1027.8
20190418113228 20 28 1.6 9.7 0.00 0.00 0.00 37 1027.8
20190418112228 19 15 1.6 9.7 0.00 0.00 0.00 38 1027.8
20190418111227 19 38 1.6 8.0 0.00 0.00 0.00 39 1027.8
20190418110228 19 346 1.6 11.3 0.00 0.00 0.00 41 1027.8
20190418105228 19 53 4.8 12.9 0.00 0.00 0.00 40 1027.8
20190418104228 18 36 3.2 6.4 0.00 0.00 0.00 40 1027.8
20190418103227 18 32 1.6 8.0 0.00 0.00 0.00 41 1028.1
20190418102228 18 186 3.2 11.3 0.00 0.00 0.00 40 1028.1
20190418101227 18 42 0.0 4.8 0.00 0.00 0.00 40 1028.1
20190418100227 18 350 6.4 8.0 0.00 0.00 0.00 41 1028.1
20190418095227 18 242 1.6 14.5 0.00 0.00 0.00 41 1028.1
20190418094227 17 355 0.0 11.3 0.00 0.00 0.00 43 1028.4
20190418093227 17 161 1.6 6.4 0.00 0.00 0.00 45 1028.4
20190418092228 17 22 3.2 11.3 0.00 0.00 0.00 47 1028.1
20190418091227 16 273 6.4 8.0 0.00 0.00 0.00 47 1028.4
20190418090228 16 273 6.4 8.0 0.00 0.00 0.00 47 1028.4
20190418085228 16 225 0.0 9.7 0.00 0.00 0.00 48 1028.4
20190418084228 15 199 4.8 9.7 0.00 0.00 0.00 48 1028.4
20190418083227 15 157 4.8 9.7 0.00 0.00 0.00 51 1028.4
20190418082228 15 200 1.6 16.1 0.00 0.00 0.00 51 1028.4
20190418081227 14 293 1.6 6.4 0.00 0.00 0.00 54 1028.1
20190418080227 13 293 4.8 4.8 0.00 0.00 0.00 59 1028.1
20190418075228 12 65 1.6 6.4 0.00 0.00 0.00 64 1028.1
20190418074226 12 19 3.2 8.0 0.00 0.00 0.00 65 1028.1
20190418073228 11 40 4.8 8.0 0.00 0.00 0.00 67 1028.1
20190418072229 11 5 3.2 6.4 0.00 0.00 0.00 69 1028.1
20190418071246 10 39 4.8 8.0 0.00 0.00 0.00 70 1028.1
20190418070227 10 37 4.8 6.4 0.00 0.00 0.00 72 1028.1
20190418065228 9 33 6.4 8.0 0.00 0.00 0.00 74 1028.1
20190418064229 8 47 1.6 6.4 0.00 0.00 0.00 77 1028.1
20190418063227 7 38 0.0 6.4 0.00 0.00 0.00 80 1028.1
20190418062228 7 44 1.6 3.2 0.00 0.00 0.00 82 1028.1
20190418061227 6 44 3.2 6.4 0.00 0.00 0.00 84 1027.8
20190418060228 5 42 3.2 4.8 0.00 0.00 0.00 87 1027.8
20190418055227 5 42 0.0 0.0 0.00 0.00 0.00 89 1027.8
20190418054228 4 42 0.0 0.0 0.00 0.00 0.00 89 1027.8
20190418053227 3 42 0.0 0.0 0.00 0.00 0.00 88 1027.8
20190418052228 3 42 0.0 0.0 0.00 0.00 0.00 86 1027.4
20190418051229 3 42 0.0 0.0 0.00 0.00 0.00 85 1027.4
20190418050227 3 42 0.0 0.0 0.00 0.00 0.00 84 1027.4
20190418045227 3 42 0.0 0.0 0.00 0.00 0.00 84 1027.4
20190418044227 3 42 0.0 0.0 0.00 0.00 0.00 83 1027.1
20190418043227 3 42 0.0 0.0 0.00 0.00 0.00 82 1027.1
20190418042227 3 42 0.0 0.0 0.00 0.00 0.00 81 1027.1
20190418041228 3 42 0.0 0.0 0.00 0.00 0.00 81 1026.8
20190418040228 4 42 0.0 0.0 0.00 0.00 0.00 80 1026.8
20190418035228 4 42 0.0 0.0 0.00 0.00 0.00 80 1026.8
20190418034228 5 42 0.0 1.6 0.00 0.00 0.00 79 1026.8
20190418033228 5 42 0.0 1.6 0.00 0.00 0.00 79 1026.8
20190418032227 5 42 0.0 3.2 0.00 0.00 0.00 79 1026.8
20190418031227 5 42 0.0 3.2 0.00 0.00 0.00 79 1026.8
20190418030228 5 42 0.0 1.6 0.00 0.00 0.00 78 1026.8
20190418025230 6 42 0.0 1.6 0.00 0.00 0.00 78 1026.8
20190418024227 6 42 0.0 0.0 0.00 0.00 0.00 79 1026.8
20190418023227 6 42 0.0 0.0 0.00 0.00 0.00 80 1026.8
20190418022227 6 42 0.0 0.0 0.00 0.00 0.00 80 1026.8
20190418021231 6 42 0.0 0.0 0.00 0.00 0.00 80 1026.8
20190418020228 6 42 0.0 0.0 0.00 0.00 0.00 81 1026.8
20190418015229 6 42 0.0 0.0 0.00 0.00 0.00 82 1026.8
20190418014227 6 42 0.0 0.0 0.00 0.00 0.00 83 1026.8
20190418013228 6 42 0.0 0.0 0.00 0.00 0.00 83 1026.4
20190418012228 5 42 0.0 0.0 0.00 0.00 0.00 84 1026.8
20190418011227 5 42 0.0 0.0 0.00 0.00 0.00 84 1026.8
20190418010227 5 42 0.0 0.0 0.00 0.00 0.00 84 1026.8
20190418005228 5 42 0.0 0.0 0.00 0.00 0.00 83 1026.4
20190418004227 5 42 0.0 0.0 0.00 0.00 0.00 83 1026.4
20190418003229 5 42 0.0 0.0 0.00 0.00 0.00 82 1026.4
20190418002228 5 42 0.0 1.6 0.00 0.00 0.00 81 1026.4
20190418001228 5 42 0.0 1.6 0.00 0.00 0.00 81 1026.4
20190418000228 5 42 0.0 1.6 0.00 0.00 0.00 79 1026.4
20190417235228 5 42 0.0 1.6 0.00 0.00 0.00 78 1026.4
20190417234228 5 42 0.0 1.6 0.00 0.00 0.00 77 1026.4
20190417233227 5 42 0.0 3.2 0.00 0.00 0.00 76 1026.4
20190417232229 5 42 0.0 0.0 0.00 0.00 0.00 74 1026.4
20190417231227 6 42 0.0 1.6 0.00 0.00 0.00 74 1026.4
20190417230227 6 42 0.0 1.6 0.00 0.00 0.00 73 1026.4
20190417225228 6 42 0.0 1.6 0.00 0.00 0.00 72 1026.1
20190417224227 7 42 0.0 1.6 0.00 0.00 0.00 71 1026.1
20190417223228 7 42 0.0 0.0 0.00 0.00 0.00 70 1026.1
20190417222229 7 42 0.0 0.0 0.00 0.00 0.00 70 1026.1
20190417221228 7 42 0.0 1.6 0.00 0.00 0.00 69 1025.7
20190417220228 8 42 0.0 0.0 0.00 0.00 0.00 68 1025.7
20190417215227 8 42 0.0 1.6 0.00 0.00 0.00 67 1025.7
20190417214227 8 42 0.0 1.6 0.00 0.00 0.00 66 1025.7
20190417213228 8 42 0.0 1.6 0.00 0.00 0.00 66 1025.7
20190417212227 9 42 0.0 1.6 0.00 0.00 0.00 65 1025.7
20190417211229 9 42 0.0 3.2 0.00 0.00 0.00 65 1025.4
20190417210228 10 42 0.0 4.8 0.00 0.00 0.00 65 1025.4
20190417205227 10 44 3.2 4.8 0.00 0.00 0.00 64 1025.4
20190417204228 10 34 1.6 6.4 0.00 0.00 0.00 63 1025.4
20190417203227 10 38 0.0 8.0 0.00 0.00 0.00 62 1025.4
20190417202228 11 44 1.6 4.8 0.00 0.00 0.00 61 1025.4
20190417201227 11 44 3.2 4.8 0.00 0.00 0.00 60 1025.4
20190417200228 11 44 1.6 6.4 0.00 0.00 0.00 60 1025.4
20190417195226 12 26 4.8 4.8 0.00 0.00 0.00 59 1025.4
20190417194227 12 41 3.2 6.4 0.00 0.00 0.00 59 1025.4
20190417193228 12 38 3.2 4.8 0.00 0.00 0.00 59 1025.1
20190417192229 12 38 3.2 6.4 0.00 0.00 0.00 59 1025.1
20190417191227 12 15 1.6 6.4 0.00 0.00 0.00 59 1025.1
20190417190313 12 34 0.0 4.8 0.00 0.00 0.00 58 1025.1
20190417185311 12 42 0.0 3.2 0.00 0.00 0.00 56 1024.7
20190417184315 13 17 0.0 3.2 0.00 0.00 0.00 55 1024.7
20190417183311 13 11 1.6 6.4 0.00 0.00 0.00 54 1024.7
20190417182309 13 51 1.6 8.0 0.00 0.00 0.00 54 1024.4
20190417181309 14 29 0.0 8.0 0.00 0.00 0.00 53 1024.4
20190417180309 14 53 3.2 9.7 0.00 0.00 0.00 51 1024.0
20190417175311 15 55 4.8 6.4 0.00 0.00 0.00 52 1024.0
20190417174309 15 24 3.2 3.2 0.00 0.00 0.00 51 1023.7
20190417173227 15 16 1.6 6.4 0.00 0.00 0.00 50 1023.7
20190417172228 15 23 1.6 6.4 0.00 0.00 0.00 49 1023.7
20190417171228 15 26 3.2 9.7 0.00 0.00 0.00 49 1023.7
20190417170227 15 15 1.6 11.3 0.00 0.00 0.00 49 1023.7
20190417165228 16 28 3.2 12.9 0.00 0.00 0.00 48 1023.4
20190417164228 16 44 1.6 9.7 0.00 0.00 0.00 48 1023.4
20190417163227 15 42 4.8 9.7 0.00 0.00 0.00 47 1023.4
20190417162227 16 32 4.8 8.0 0.00 0.00 0.00 47 1023.4
20190417161227 16 32 4.8 8.0 0.00 0.00 0.00 47 1023.4
20190417160228 16 42 3.2 11.3 0.00 0.00 0.00 46 1023.4
20190417155229 16 51 1.6 12.9 0.00 0.00 0.00 46 1023.4
20190417154229 16 18 6.4 12.9 0.00 0.00 0.00 46 1023.4
20190417153227 16 26 3.2 12.9 0.00 0.00 0.00 45 1023.4
20190417152228 17 90 1.6 8.0 0.00 0.00 0.00 46 1023.4
20190417151227 16 45 4.8 17.7 0.00 0.00 0.00 46 1023.4
20190417150228 16 360 1.6 12.9 0.00 0.00 0.00 47 1023.4
20190417145229 16 5 1.6 9.7 0.00 0.00 0.00 49 1023.4
20190417144227 16 36 3.2 9.7 0.00 0.00 0.00 46 1023.4
20190417143228 16 31 3.2 9.7 0.00 0.00 0.00 47 1023.4
20190417142229 16 42 3.2 14.5 0.00 0.00 0.00 48 1023.4
20190417141323 16 40 4.8 17.7 0.00 0.00 0.00 47 1023.4
20190417140228 16 51 3.2 19.3 0.00 0.00 0.00 47 1023.4
20190417135229 17 26 3.2 17.7 0.00 0.00 0.00 45 1023.4
20190417134229 16 55 3.2 17.7 0.00 0.00 0.00 47 1023.0
20190417133227 16 47 6.4 17.7 0.00 0.00 0.00 47 1023.4
20190417132227 16 60 0.0 14.5 0.00 0.00 0.00 49 1023.4
20190417131227 16 37 6.4 16.1 0.00 0.00 0.00 48 1023.4